Stampede Pass, WA

5:51 PM PDT on July 25, 2017 (GMT -0700)
Stampede Pass

Weather History for KSMP - October, 2010

Change the Weather History Date:

Tuesday, October 5, 2010

  Actual Average Record
Temperature  
Mean Temperature 44 °F -  
Max Temperature 55 °F 50 °F 68 °F (2004)
Min Temperature 33 °F 38 °F 32 °F (2007)
Degree Days  
Heating Degree Days 21    
Moisture  
Dew Point 37 °F    
Average Humidity 87    
Maximum Humidity 100    
Minimum Humidity 55    
Precipitation  
Precipitation 0.00 in - - ()
Sea Level Pressure  
Sea Level Pressure 30.36 in    
Wind  
Wind Speed 5 mph (SW)    
Max Wind Speed 8 mph    
Max Gust Speed -    
Visibility 6 miles    
Events Fog    
Averages and records for this station are not official NWS values.
T = Trace of Precipitation, MM = Missing Value Source: NWS Daily Summary

Daily Weather History Graph

Daily Weather History Graph

Search for Another Location

Airport or City:

Trip Planner

Search our weather history database for the weather conditions in past years. The results will help you decide how hot, cold, wet, or windy it might be!

Date:

Astronomy

Oct. 05, 2010 Rise Set
Actual Time 7:09 AM PDT 6:36 PM PDT
Civil Twilight 6:39 AM PDT 7:07 PM PDT
Nautical Twilight 6:03 AM PDT 7:42 PM PDT
Astronomical Twilight 5:27 AM PDT 8:18 PM PDT
Moon 4:30 AM PDT (10/5) 5:15 PM PDT (10/5)
Length of Visible Light 12h 27m
Length of Day
11h 26m
Waning Crescent, 6% of the Moon is Illuminated
Oct 5
Waning Crescent
Oct 7
New
Oct 14
First Quarter
Oct 22
Full
Oct 30
Last Quarter

Hourly Weather History & Observations

Time (PDT) Temp. Windchill Dew Point Humidity Pressure Visibility Wind Dir Wind Speed Gust Speed Precip Events Conditions
12:03 AM 37.4 °F 31.4 °F 37.4 °F 100% 30.25 in 0.8 mi West 8.1 mph - N/A   Overcast
12:18 AM 37.4 °F 31.4 °F 37.4 °F 100% 30.25 in 0.2 mi SW 8.1 mph - N/A Fog Fog
12:56 AM 37.9 °F 34.4 °F 37.9 °F 100% 30.29 in 0.2 mi Variable 4.6 mph - N/A Fog Fog
1:45 AM 37.4 °F 32.8 °F 37.4 °F 100% 30.26 in 0.2 mi SW 5.8 mph - N/A Fog Fog
1:56 AM 37.0 °F 33.3 °F 37.0 °F 100% 30.30 in 0.2 mi Variable 4.6 mph - N/A Fog Fog
2:03 AM 37.4 °F 33.8 °F 37.4 °F 100% 30.26 in 0.2 mi Variable 4.6 mph - N/A Fog Fog
2:33 AM 37.4 °F 33.8 °F 37.4 °F 100% 30.28 in 0.2 mi Variable 4.6 mph - N/A Fog Fog
2:56 AM 37.0 °F 33.3 °F 37.0 °F 100% 30.31 in 0.2 mi West 4.6 mph - N/A Fog Fog
3:56 AM 36.0 °F 30.3 °F 36.0 °F 100% 30.33 in 0.2 mi SW 6.9 mph - N/A Fog Fog
4:56 AM 35.1 °F 29.3 °F 35.1 °F 100% 30.35 in 0.2 mi Variable 6.9 mph - N/A Fog Fog
5:56 AM 35.1 °F 30.1 °F 34.0 °F 96% 30.37 in 0.2 mi SW 5.8 mph - N/A Fog Fog
6:22 AM 33.8 °F 29.6 °F 33.8 °F 100% 30.32 in 0.5 mi SW 4.6 mph - N/A Fog Fog
6:36 AM 33.8 °F 27.7 °F 33.8 °F 100% 30.32 in 1.2 mi SW 6.9 mph - N/A   Overcast
6:40 AM 33.8 °F 27.7 °F 33.8 °F 100% 30.33 in 2.0 mi SW 6.9 mph - N/A   Overcast
6:51 AM 34.0 °F 28.8 °F 34.0 °F 100% 30.39 in 7.0 mi SW 5.8 mph - N/A   Mostly Cloudy
6:59 AM 33.8 °F 27.7 °F 33.8 °F 100% 30.33 in 10.0 mi SW 6.9 mph - N/A   Partly Cloudy
7:56 AM 34.0 °F 29.8 °F 33.1 °F 96% 30.41 in 10.0 mi SW 4.6 mph - N/A   Clear
8:56 AM 35.1 °F 30.1 °F 34.0 °F 96% 30.44 in 10.0 mi SW 5.8 mph - N/A   Clear
9:56 AM 39.0 °F 35.7 °F 34.0 °F 82% 30.45 in 10.0 mi Variable 4.6 mph - N/A   Clear
10:56 AM 43.0 °F 41.3 °F 34.0 °F 71% 30.45 in 10.0 mi WSW 3.5 mph - N/A   Clear
11:56 AM 48.9 °F - 37.0 °F 64% 30.43 in 10.0 mi Calm Calm - N/A   Clear
12:56 PM 52.0 °F - 37.9 °F 59% 30.42 in 10.0 mi Calm Calm - N/A   Clear
1:56 PM 55.0 °F - 39.0 °F 55% 30.40 in 10.0 mi Variable 3.5 mph - N/A   Clear
2:56 PM 54.0 °F - 39.9 °F 59% 30.39 in 10.0 mi Variable 3.5 mph - N/A   Clear
3:56 PM 54.0 °F - 42.1 °F 64% 30.40 in 10.0 mi Calm Calm - N/A   Clear
4:56 PM 53.1 °F - 42.1 °F 66% 30.39 in 10.0 mi Variable 5.8 mph - N/A   Clear
5:56 PM 48.9 °F - 43.0 °F 80% 30.41 in 10.0 mi SW 4.6 mph - N/A   Clear
6:56 PM 46.0 °F 43.9 °F 42.1 °F 86% 30.42 in 10.0 mi WSW 4.6 mph - N/A   Clear
7:56 PM 50.0 °F - 39.9 °F 68% 30.40 in 10.0 mi Calm Calm - N/A   Clear
8:56 PM 48.0 °F - 41.0 °F 77% 30.40 in 10.0 mi Calm Calm - N/A   Clear
9:56 PM 46.0 °F - 39.9 °F 79% 30.38 in 10.0 mi Calm Calm - N/A   Clear
10:56 PM 44.1 °F - 39.9 °F 85% 30.37 in 10.0 mi Calm Calm - N/A   Clear
11:56 PM 44.1 °F 42.5 °F 39.0 °F 82% 30.34 in 10.0 mi Variable 3.5 mph - N/A   Clear